Regional Weather Roundup
Issued by NWS Grand Forks, ND

Home | Current Version | Previous Version | Graphics & Text | Print | Product List | Glossary On
Versions: 1 2 3 4 5 6 7 8 9 10 11 12 13 14 15 16 17 18 19 20 21 22 23 24 25 26 27 28 29 30 31 32 33 34 35 36 37 38 39 40 41 42 43 44 45 46 47 48 49 50
000
ASUS43 KFGF 051531
RWRFGF
PRAIRIE TO PINES  WEATHER ROUNDUP
NATIONAL WEATHER SERVICE EASTERN NORTH DAKOTA/GRAND FORKS ND
1000 AM CDT TUE MAY 05 2015

 **SATELLITE DATA USED TO AUGMENT SKY COVER AT AUTOMATED STATIONS**
 *****  WEATHER ACROSS EASTERN NORTH DAKOTA  *****

CITY           SKY/WX    TMP DP  RH WIND       PRES   REMARKS
GRAND FORKS    PTSUNNY   64  27  24 S16       30.16F
GRAND FRKS AFB MOSUNNY   62  28  27 S17       30.15F
GRAND FRKS NWS   N/A     64 N/A N/A S10         N/A
DEVILS LAKE    MOSUNNY   63  36  36 S20G26    30.09F
FARGO          SUNNY     67  23  19 SE17G26   30.15F
WAHPETON ARPT  SUNNY     68  19  15 SE18      30.15F
$$

 ***** WEATHER ACROSS CENTRAL AND WESTERN NORTH DAKOTA  *****

CITY           SKY/WX    TMP DP  RH WIND       PRES   REMARKS
BISMARCK       MOSUNNY   61  37  41 SE14      30.05F
MINOT          CLOUDY    60  31  33 SE12G21   29.99F
JAMESTOWN      MOSUNNY   65  30  27 S18G25    30.12S
MINOT AFB      MOSUNNY   64  33  30 S18       29.99F
GARRISON         N/A     60  33  36 S15       30.00F
WILLISTON      SUNNY     62  30  29 S10       29.92F
DICKINSON      SUNNY     61  34  36 S24G33    29.94F
HETTINGER      PTSUNNY   59  35  40 SE18G28   29.98F
$$

 *****  OTHER AIRPORT OBSERVATIONS IN OUR AREA  *****

CITY           SKY/WX    TMP DP  RH WIND       PRES   REMARKS
WALHALLA       FAIR      66  28  24 S16G25    30.11F
GRAFTON AIRPOR FAIR      64  32  29 S16G23    30.15F
VALLEY CITY AR FAIR      64  28  25 S17G23    30.14F
CANDO          CLOUDY    64  32  29 S21       30.09F
CAVALIER APRT  FAIR      66  28  24 S24G33    30.12F
GWINNER        SUNNY     66  30  26 SE20      30.15F
ROLLA          NOT AVBL
 ***** THE ABOVE OBSERVATIONS ARE NON NWS ARE NOT QUALITY
       CONTROLLED AND MAY MIS-REPORT RAIN FOR SNOW...
$$

  *****  WEATHER ACROSS NORTHERN MINNESOTA  *****

CITY           SKY/WX    TMP DP  RH WIND       PRES   REMARKS
FLAG ISLAND    SUNNY     52  36  54 SE12      30.18F
WARROAD        SUNNY     66  36  32 SW12      30.18F
ROSEAU         SUNNY     68  27  21 S14       30.17F
HALLOCK        SUNNY     66  21  18 S24       30.14F
THF RVR FALLS  SUNNY     66  25  20 S16G22    30.18F
BAUDETTE       SUNNY     65  29  25 S9        30.20F
WASKISH        SUNNY     66  30  26 SE10G17   30.21F
CROOKSTON      SUNNY     68  25  19 S20       30.17F
$$
  *****  WEATHER ACROSS CENTRAL AND WEST MINNESOTA  *****

CITY           SKY/WX    TMP DP  RH WIND       PRES   REMARKS
FOSSTON        SUNNY     64  19  17 S14       30.19F
BEMIDJI        SUNNY     65  25  22 SE16G23   30.21F
PARK RAPIDS    SUNNY     65  21  18 SE17      30.20F
ELBOW LAKE     FAIR      66  27  23 SE15G21   30.16F
WADENA         SUNNY     63  30  29 E14       30.19F
DETROIT LAKES  SUNNY     63  27  25 SE16      30.19F
MOORHEAD       SUNNY     66  21  18 SE16      30.16F
FERGUS FALLS   SUNNY     64  27  24 SE18      30.17F
MORRIS MN      SUNNY     70  27  19 E17G23    30.14F
STAPLES        SUNNY     63  23  22 SE10      30.20F
$$
  *****  WEATHER ELSEWHERE ACROSS MINNESOTA  *****

CITY           SKY/WX    TMP DP  RH WIND       PRES   REMARKS
DULUTH         SUNNY     61  30  31 SE13      30.27F
INTRNTL FALLS  SUNNY     65  26  23 S9        30.22F
ELY            SUNNY     63  19  19 SE10G16   30.26F
CLOQUET        SUNNY     61  28  29 SE7       30.26F
WHEATON        SUNNY     66  30  26 SE17      30.15F
BRAINERD       SUNNY     62  31  31 VRB7      30.22F
HIBBING        SUNNY     64  23  21 SE10G17   30.26F
ALEXANDRIA     SUNNY     64  31  28 E13       30.19F
SAINT CLOUD    SUNNY     62  38  40 E12G17    30.19F
MINNEAPOLIS    MOSUNNY   62  43  49 SE16      30.20F
$$

  *****  WEATHER ACROSS SOUTH DAKOTA  *****

CITY           SKY/WX    TMP DP  RH WIND       PRES   REMARKS
SIOUX FALLS    PTSUNNY   62  37  39 E14       30.08F
BROOKINGS      MOSUNNY   66  30  26 E15G25    30.12S
WATERTOWN      SUNNY     64  28  25 E13G22    30.12F
HURON          SUNNY     66  32  28 E15G23    30.09F
SISSETON         N/A     62  30  29 S15       30.14F
ABERDEEN       SUNNY     67  30  25 SE16      30.11F
MITCHELL       MOSUNNY   65  35  33 SE13      30.08F
PIERRE         CLOUDY    59  40  49 SE17      30.04F
MOBRIDGE       MOSUNNY   65  37  35 SE23G30   30.04F
RAPID CITY     SUNNY     56  41  57 SE13      29.98F
$$

  *****  SOME WEATHER IN NEARBY STATES *****

CITY           SKY/WX    TMP DP  RH WIND       PRES   REMARKS
GLASGOW MT     SUNNY     57  37  47 SE15      29.81F
GREAT FALLS MT SUNNY     58  32  37 VRB3      29.79R
CHEYENNE WY    FOG       44  44 100 S10       29.99F VSB 1/4
SCOTTSBLUFF NE CLOUDY    51  46  83 SE8       29.99F
OMAHA NE       PTSUNNY   65  60  84 S9        30.09S
DES MOINES IA  CLOUDY    67  61  81 S10       30.11S
DAVENPORT IA   CLOUDY    60  57  89 E8        30.18S FOG
CHICAGO IL     CLOUDY    50  49  96 E10       30.22R
EAU CLAIRE WI  SUNNY     63  25  23 SE17G23   30.25F
LA CROSSE WI   LGT RAIN  54  48  80 SE8       30.25R
$$

  *****  SOME NATIONAL WEATHER *****

CITY           SKY/WX    TMP DP  RH WIND       PRES   REMARKS
LA GUARDIA NY  PTSUNNY   73  52  47 N6        30.21R
RALEIGH NC     MOSUNNY   74  57  55 SW10      30.36S
ATLANTA GA     SUNNY     71  55  56 VRB6      30.34S
NEW ORLEANS LA MOSUNNY   79  61  53 SE17G24   30.17S
OKLAHOMA CITY  PTSUNNY   69  57  65 S20G29    30.03S
ALBUQUERQUE NM PTSUNNY   54  45  71 S8        29.95F
SALT LAKE CITY CLOUDY    62  45  53 CALM      29.86R
LOS ANGELES CA CLOUDY    59  50  72 SE5       30.00S
BOISE ID       SUNNY     57  34  41 NW13      29.86R
SEATTLE WA     PTSUNNY   49  45  86 S12       30.02R
$$

*** WEATHER ACROSS MANITOBA...SASKATCHEWAN AND ONTARIO ***
                ***ONTARIO***

CITY           SKY/WX    TMP DP  RH WIND       PRES   REMARKS
GERALDTON      MOSUNNY   55  25  30 NW9       30.28R
THUNDER BAY    SUNNY     61  34  36 E5        30.29F
SIOUX LOOKOUT  MOSUNNY   59  32  36 S6        30.23S
TORONTO        CLOUDY    59  50  72 E10       30.31R
BIG TROUT LK   SUNNY     41  21  45 W12G17    30.21S
PICKLE LAKE    PTSUNNY   48  27  43 W5        30.23S
DRYDEN         SUNNY     61  30  31 SW10      30.22S
KENORA         SUNNY     57  32  38 SW13      30.21S
$$
                *** MANITOBA***

CITY           SKY/WX    TMP DP  RH WIND       PRES   REMARKS
BRANDON        MOSUNNY   64  32  29 S16G28    30.03F
DAUPHIN        PTSUNNY   55  39  54 E6        30.02F
ISLAND LAKE    CLOUDY    39  23  52 E5        30.21
PILOT MOUND      N/A     61  28  29 S24G31      N/A
THE PAS        LGT RAIN  34  32  93 E5        30.14R
THOMPSON       MOSUNNY   39  18  41 NW6       30.20F
WINNIPEG       MOSUNNY   64  28  25 S20G25    30.13F
LYNN LAKE      SUNNY     37  16  41 VRB6      30.18F
CHURCHILL      MOSUNNY   21  14  73 NW17G23   30.17R WCI   7
GILLAM         SUNNY     32  19  59 W10       30.20F WCI  24
$$
                ***SASKATCHEWAN***

CITY           SKY/WX    TMP DP  RH WIND       PRES   REMARKS
ESTEVAN        MOSUNNY   61  32  33 S21G29    29.92F
KINDERSLEY     MOSUNNY   55  43  62 SE13      29.71S
LLOYDMINSTER   MOSUNNY   48  34  57 E23G29    29.77F
PRINCE ALBERT  MOSUNNY   50  37  62 E23G32    29.91F
REGINA         MOSUNNY   57  36  44 S22       29.86F
YORKTON        MOSUNNY   59  32  36 S17G24    29.91F
N. BATTLEFORD  MOSUNNY   50  37  62 E26G36    29.81S
LA RONGE       PTSUNNY   41  21  45 E12G21    30.10F
SASKATOON      MOSUNNY   54  43  66 E16       29.81F
SWIFT CURRENT  SUNNY     61  43  51 S22       29.73S
$$
NOTE: THESE ARE AUTOMATED STATIONS WITH LIMITED QUALITY CONTROL
      "FAIR" INDICATES FEW OR NO CLOUDS BELOW 12,000 FEET WITH NO
      SIGNIFICANT WEATHER AND/OR OBSTRUCTIONS TO VISIBILITY.
      SKY/WX - SKY CONDITION AND SIGNIFICANT WEATHER.
      TMP - AIR TEMPERATURE.    DP   - DEWPOINT TEMPERATURE.
      RH  - RELATIVE HUMIDITY.  PRES - PRESSURE.
      HX  - HEAT INDEX.         WCI  - WIND CHILL INDEX.
$


USA.gov is the U.S. government's official web portal to all federal, state and local government web resources and services.